User: anonymous   Login
Location: Stoke Bliss
(52.2667°N, 2.5167°W)
Time: 05:27:45
(UTC+00:00)
Language:

Cosmos 1271 Rocket - Orbit

View from above orbital plane
View from above orbital plane
View from above satellite
View from above satellite

Ground track
Ground track

The orbit data is extracted from the following two-line orbital elements,

1 12465U 81046B   21128.20630826  .00000061  00000-0  18585-5 0  9997
2 12465  81.2431 190.6960 0032691 248.5883 111.1857 15.14930036182523
Epoch (UTC): 08 May 2021 04:57:05
Eccentricity: 0.0032691
inclination: 81.2431°
perigee height: 498 km
apogee height: 544 km
right ascension of ascending node: 190.6960°
argument of perigee: 248.5883°
revolutions per day: 15.14930036
mean anomaly at epoch: 111.1857°
orbit number at epoch: 18252

The dashed part of the orbit path shows where the satellite is in the earth's shadow,  

DLR